Regional Weather Roundup
Issued by NWS Midland/Odessa, TX

Skip options and go directly to product.
Home | Oldest Version | Previous Version | Current Version | All | Text Only | Save Text | Print | Product List | Glossary Off

Skip product version selection by date and time.   

403
ASUS44 KMAF 282010
RWRMAF
MIDLAND AREA WEATHER ROUNDUP
NATIONAL WEATHER SERVICE MIDLAND TX
300 PM CDT MON JUL 28 2014

...IN SOUTHWEST TEXAS AND SOUTHEAST NEW MEXICO...

CITY           SKY/WX    TMP DP  RH WIND       PRES   REMARKS
ALPINE         MOSUNNY   90  57  32 NE10G16   30.30F
ANDREWS        CLOUDY    91  57  31 NE14      30.21F
ARTESIA        PTSUNNY   88  55  33 NE7       30.24F
BIG SPRING     PTSUNNY   94  62  34 NE17G23   30.20F
CARLSBAD       MOSUNNY   94  55  26 E9G18     30.20F
DRYDEN           N/A    101  55  21 E13G25    30.11F
FORT STOCKTON  MOSUNNY   96  53  23 E16G25    30.16F
GUAD PASS      MOSUNNY   82  54  37 E26         N/A
HOBBS          MOSUNNY   88  55  33 NE14G21   30.26F
MARFA          MOSUNNY   84  59  42 E8        30.31F
MIDLAND AIRPK  MOSUNNY   94  56  27 NE10      30.19F
MIDLAND INTL   MOSUNNY   95  59  30 NE9G20    30.18F
ODESSA         MOSUNNY   94  56  27 E13G23    30.19F
PECOS          MOSUNNY   99  55  22 E16       30.13F
PRESIDIO       MOCLDY    98  56  25 E7G17     30.11F
SEMINOLE       MOSUNNY   90  58  34 NE10G22   30.25F
SNYDER         MOSUNNY   88  66  47 NE18G25   30.21F
WINK           MOSUNNY   99  52  20 E13G20    30.13F
$$
...OTHER STATIONS IN TEXAS...

CITY           SKY/WX    TMP DP  RH WIND       PRES   REMARKS
ABILENE        PTSUNNY   90  68  48 NE18G28   30.16S
AMARILLO       PTSUNNY   74  64  71 SE16      30.35F
AUSTIN         MOSUNNY   97  66  36 VRB3      30.07F HX 100
BROWNSVILLE    SUNNY     95  71  45 SE16G24   30.05F HX 102
CORPUS CHRISTI MOSUNNY   97  73  45 SE21G28   30.04F HX 107
DALLAS FTW     PTSUNNY   95  67  39 N20G25    30.12S
DEL RIO        SUNNY     95  69  42 E8        30.07F HX 100
EL PASO        MOSUNNY   90  58  33 N6G17     30.21F
HOUSTON INT    MOSUNNY   94  69  44 N5        30.07F
LUBBOCK        PTSUNNY   83  64  52 E18G26    30.29F
SAN ANGELO     SUNNY     98  58  26 E10G16    30.12F
SAN ANTONIO    MOSUNNY   94  68  42 S10       30.10F
WACO           MOSUNNY   97  68  38 SW3       30.06F HX 102
WICHITA FALLS  NOT AVBL
$$
...OTHER LOCATIONS IN NEW MEXICO...

CITY           SKY/WX    TMP DP  RH WIND       PRES   REMARKS
ALAMAGORDO     CLOUDY    82  57  42 N7        30.27F
ALBUQUERQUE    PTSUNNY   82  53  36 VRB5      30.35F
CANNON AFB     MOSUNNY   82  63  51 SE13G21   30.34F
CLOVIS         NOT AVBL
HOLLOMAN AFB   NOT AVBL
ROSWELL        PTSUNNY   89  57  33 VRB6      30.25F
RUIDOSO        PTSUNNY   70  57  64 E8        30.49F
SANTA FE       PTSUNNY   77  55  46 SW9G20    30.40F
TRUTH OR CONSE PTSUNNY   82  56  40 E9        30.30F
TUCUMCARI      PTSUNNY   84  61  45 E13       30.31F
$$

USA.gov is the U.S. government's official web portal to all federal, state and local government web resources and services.